The Dalles, WA

1:50 PM PDT on August 18, 2017 (GMT -0700)
Columbia Gorge Regional-The Dalles

Weather History for KDLS - February, 2013

Change the Weather History Date:

Sunday, February 24, 2013

  Actual Average Record
Temperature  
Mean Temperature 42 °F -  
Max Temperature 51 °F 53 °F 67 °F (1968)
Min Temperature 32 °F 33 °F 14 °F (1962)
Degree Days  
Heating Degree Days 24    
Moisture  
Dew Point 29 °F    
Average Humidity 65    
Maximum Humidity 79    
Minimum Humidity 44    
Precipitation  
Precipitation 0.00 in - - ()
Sea Level Pressure  
Sea Level Pressure 30.30 in    
Wind  
Wind Speed 5 mph (NW)    
Max Wind Speed 12 mph    
Max Gust Speed 20 mph    
Visibility 10 miles    
Events      
Averages and records for this station are not official NWS values.
T = Trace of Precipitation, MM = Missing Value Source: NWS Daily Summary

Daily Weather History Graph

Daily Weather History Graph

Search for Another Location

Airport or City:

Trip Planner

Search our weather history database for the weather conditions in past years. The results will help you decide how hot, cold, wet, or windy it might be!

Date:

Astronomy

Feb. 24, 2013 Rise Set
Actual Time 6:51 AM PST 5:45 PM PST
Civil Twilight 6:21 AM PST 6:15 PM PST
Nautical Twilight 5:46 AM PST 6:49 PM PST
Astronomical Twilight 5:12 AM PST 7:23 PM PST
Moon 5:01 PM PST (2/24) 5:52 AM PST (2/24)
Length of Visible Light 11h 53m
Length of Day
10h 53m
Waxing Gibbous, 99% of the Moon is Illuminated
Feb 24
Waxing Gibbous
Feb 25
Full
Mar 4
Last Quarter
Mar 11
New
Mar 19
First Quarter

Hourly Weather History & Observations

Time (PST) Temp. Windchill Dew Point Humidity Pressure Visibility Wind Dir Wind Speed Gust Speed Precip Events Conditions
12:53 AM 39.9 °F 34.5 °F 28.0 °F 63% 30.39 in 10.0 mi West 8.1 mph - N/A   Clear
1:53 AM 37.9 °F 32.7 °F 27.0 °F 65% 30.39 in 10.0 mi WNW 6.9 mph - N/A   Clear
2:53 AM 35.1 °F - 27.0 °F 72% 30.39 in 10.0 mi Calm Calm - N/A   Clear
3:53 AM 33.1 °F - 26.1 °F 75% 30.40 in 10.0 mi Calm Calm - N/A   Partly Cloudy
4:53 AM 32.0 °F - 26.1 °F 79% 30.40 in 10.0 mi Calm Calm - N/A   Overcast
5:53 AM 35.1 °F 32.2 °F 28.0 °F 76% 30.40 in 10.0 mi ESE 3.5 mph - N/A   Overcast
6:53 AM 36.0 °F 31.1 °F 28.0 °F 73% 30.39 in 10.0 mi ESE 5.8 mph - N/A   Overcast
7:53 AM 37.9 °F 35.5 °F 28.9 °F 70% 30.39 in 10.0 mi ESE 3.5 mph - N/A   Overcast
8:53 AM 42.1 °F - 30.9 °F 65% 30.39 in 10.0 mi Calm Calm - N/A   Overcast
9:53 AM 44.1 °F 42.5 °F 32.0 °F 63% 30.39 in 10.0 mi East 3.5 mph - N/A   Mostly Cloudy
10:53 AM 46.9 °F - 32.0 °F 56% 30.37 in 10.0 mi NW 10.4 mph - N/A   Scattered Clouds
11:53 AM 46.9 °F - 30.9 °F 54% 30.35 in 10.0 mi NW 10.4 mph 19.6 mph N/A   Clear
12:53 PM 48.9 °F - 30.9 °F 50% 30.33 in 10.0 mi NW 8.1 mph - N/A   Clear
1:53 PM 50.0 °F - 30.9 °F 48% 30.30 in 10.0 mi WNW 10.4 mph - N/A   Clear
2:53 PM 51.1 °F - 30.0 °F 44% 30.27 in 10.0 mi Variable 4.6 mph - N/A   Clear
3:53 PM 51.1 °F - 30.0 °F 44% 30.25 in 10.0 mi NW 11.5 mph - N/A   Clear
5:53 PM 45.0 °F 41.8 °F 30.0 °F 56% 30.21 in 10.0 mi WNW 5.8 mph - N/A   Partly Cloudy
6:53 PM 42.1 °F 39.2 °F 30.9 °F 65% 30.19 in 9.0 mi WSW 4.6 mph - N/A   Clear
7:53 PM 39.9 °F 36.7 °F 30.0 °F 68% 30.18 in 10.0 mi SW 4.6 mph - N/A   Clear
8:53 PM 37.9 °F 35.5 °F 30.0 °F 73% 30.15 in 10.0 mi ESE 3.5 mph - N/A   Clear
9:53 PM 37.0 °F 34.5 °F 28.9 °F 73% 30.13 in 10.0 mi East 3.5 mph - N/A   Clear
10:53 PM 36.0 °F 33.3 °F 30.0 °F 79% 30.11 in 10.0 mi ESE 3.5 mph - N/A   Scattered Clouds
11:53 PM 37.0 °F - 30.9 °F 79% 30.08 in 10.0 mi Calm Calm - N/A   Overcast